Location: Star Dogged Moon Observatory
(29.7756°N, 82.0783°W)
Time: 11:55:19
(UTC-04:00)

ARGOS - Visible Passes

Search period start: 01 August 2014 00:00
Search period end: 11 August 2014 00:00
Orbit: 821 x 835 km, 98.8° (Epoch: 31 July)

Date Brightness Start Highest point End Pass type
(mag) Time Alt. Az. Time Alt. Az. Time Alt. Az.
01 Aug 3.5 22:55:04 54° NNE 22:55:04 54° NNE 22:59:27 10° N visible
02 Aug 3.9 22:36:29 38° NE 22:36:29 38° NE 22:40:49 10° N visible
03 Aug 5.5 00:18:01 16° WNW 00:18:01 16° WNW 00:19:49 10° NW visible
03 Aug 4.3 22:17:55 26° ENE 22:17:55 26° ENE 22:21:57 10° NNE visible
03 Aug 5.1 23:59:27 24° WNW 23:59:27 24° WNW 00:02:13 10° NW visible
04 Aug 4.8 21:59:20 18° ENE 21:59:20 18° ENE 22:02:46 10° NNE visible
04 Aug 4.6 23:40:52 34° NW 23:40:52 34° NW 23:44:16 10° NNW visible
05 Aug 5.2 21:40:46 11° ENE 21:41:10 11° ENE 21:42:39 10° NE visible
05 Aug 4.0 23:22:18 46° NNW 23:22:18 46° NNW 23:26:04 10° NNW visible
06 Aug 3.8 23:03:44 50° N 23:03:44 50° N 23:07:41 10° N visible
07 Aug 3.9 22:45:10 41° NE 22:45:10 41° NE 22:49:08 10° N visible
08 Aug 5.8 00:26:42 12° WNW 00:26:42 12° WNW 00:27:26 10° WNW visible
08 Aug 4.3 22:26:36 30° NE 22:26:36 30° NE 22:30:23 10° N visible
09 Aug 5.4 00:08:08 18° WNW 00:08:08 18° WNW 00:10:07 10° NW visible
09 Aug 4.7 22:08:02 21° ENE 22:08:02 21° ENE 22:11:22 10° NNE visible
09 Aug 5.0 23:49:34 26° NW 23:49:34 26° NW 23:52:18 10° NNW visible
10 Aug 5.0 21:49:28 14° ENE 21:49:28 14° ENE 21:51:50 10° NE visible
10 Aug 4.5 23:31:00 35° NW 23:31:00 35° NW 23:34:12 10° NNW visible
